Location: Newark
(47.4000°N, 7.5833°E)
Time: 20:03:26
(UTC+00:00)

N. Korean satellite - Visible Passes

Search period start: 29 January 2020 00:00
Search period end: 08 February 2020 00:00
Orbit: 454 x 507 km, 97.2° (Epoch: 29 January)

Date Brightness Start Highest point End Pass type
(mag) Time Alt. Az. Time Alt. Az. Time Alt. Az.
29 Jan 6.5 05:35:15 10° N 05:38:50 71° WNW 05:42:28 10° SSW visible
30 Jan 7.3 05:09:46 10° NNE 05:13:19 55° E 05:16:55 10° S visible
30 Jan 9.7 17:22:40 10° SW 17:25:03 18° W 17:27:28 10° NW visible
31 Jan 8.8 04:44:34 10° NE 04:47:44 27° E 04:50:55 10° SSE visible
31 Jan 7.7 06:18:06 10° NNW 06:21:01 23° WNW 06:23:58 10° WSW visible
01 Feb 9.8 04:19:55 10° NE 04:22:03 15° E 04:24:12 10° SE visible
01 Feb 6.9 05:52:11 10° N 05:55:39 44° WNW 05:59:08 10° SW visible
02 Feb 6.5 05:26:32 10° NNE 05:30:12 90° SW 05:33:53 10° SSW visible
02 Feb 10.1 17:40:52 10° WSW 17:42:03 11° W 17:43:14 10° WNW visible
03 Feb 7.8 05:01:09 10° NNE 05:04:39 43° E 05:08:11 10° S visible
03 Feb 9.5 17:13:34 10° SSW 17:16:18 22° W 17:19:05 10° NW visible
04 Feb 9.2 04:36:04 10° NE 04:39:01 23° E 04:41:59 10° SSE visible
04 Feb 7.5 06:09:14 10° N 06:12:24 29° WNW 06:15:37 10° SW visible
05 Feb 10.1 04:11:47 10° ENE 04:13:18 12° E 04:14:49 10° ESE visible
05 Feb 6.7 05:43:25 10° N 05:47:01 56° WNW 05:50:38 10° SSW visible
06 Feb 6.9 05:17:51 10° NNE 05:21:31 72° ESE 05:25:13 10° S visible
06 Feb 9.9 17:31:17 10° SW 17:33:15 14° W 17:35:14 10° NW visible
07 Feb 8.3 04:52:32 10° NNE 04:55:57 35° E 04:59:22 10° SSE visible
